QPF
0.02 0.01 0.02 0.01 0.01 0.02 0.02 0.03 0.04 0.05 0.05 0.04 0.05 0.05 0.06 0.08 0.08 0.05 0.03 0.02 0.01 0.01 0.01 0.01 0.00 0.00 0.00 0.00 0.00 0.00 0.00 0.00 0.00 0.00 0.00 0.00 0.00 0.00 0.00 0.00 0.00 0.00 0.00
0.01 0.01 0.02 0.01 0.02 0.02 0.02 0.02 0.02 0.03 0.04 0.03 0.04 0.04 0.04 0.06 0.06 0.06 0.02 0.01 0.01 0.01 0.01 0.01 0.00 0.00 0.00 0.00 0.01 0.01 0.00 0.00 0.00 0.00 0.00 0.00 0.00 0.00 0.00 0.00 0.00 0.00 0.00
0.01 0.01 0.02 0.01 0.02 0.02 0.02 0.02 0.02 0.02 0.04 0.04 0.03 0.03 0.03 0.04 0.04 0.04 0.02 0.01 0.00 0.00 0.00 0.01 0.01 0.00 0.00 0.01 0.00 0.00 0.00 0.01 0.00 0.00 0.00 0.00 0.00 0.00 0.00 0.00 0.00 0.00 0.00
0.02 0.02 0.02 0.01 0.01 0.02 0.02 0.02 0.02 0.03 0.04 0.04 0.04 0.05 0.03 0.03 0.04 0.04 0.02 0.01 0.01 0.00 0.00 0.00 0.00 0.01 0.01 0.01 0.01 0.01 0.01 0.00 0.00 0.01 0.01 0.00 0.00 0.00 0.00 0.00 0.00 0.00 0.00
0.02 0.02 0.02 0.02 0.02 0.02 0.03 0.03 0.03 0.04 0.04 0.05 0.05 0.05 0.04 0.03 0.03 0.03 0.03 0.03 0.02 0.01 0.01 0.01 0.01 0.01 0.02 0.01 0.01 0.01 0.01 0.01 0.01 0.00 0.00 0.01 0.01 0.00 0.00 0.00 0.00 0.00 0.00
0.03 0.03 0.02 0.02 0.03 0.04 0.04 0.03 0.02 0.03 0.03 0.03 0.04 0.07 0.06 0.04 0.03 0.03 0.03 0.03 0.03 0.03 0.02 0.01 0.01 0.01 0.02 0.03 0.03 0.02 0.01 0.01 0.00 0.00 0.01 0.01 0.01 0.01 0.01 0.01 0.01 0.01 0.01
0.07 0.06 0.05 0.03 0.04 0.04 0.05 0.05 0.04 0.03 0.03 0.03 0.05 0.07 0.08 0.08 0.07 0.04 0.03 0.03 0.03 0.02 0.02 0.02 0.02 0.02 0.01 0.01 0.02 0.03 0.03 0.03 0.02 0.01 0.01 0.01 0.01 0.01 0.01 0.01 0.01 0.01 0.01
0.13 0.10 0.07 0.04 0.03 0.03 0.04 0.04 0.03 0.03 0.03 0.03 0.04 0.05 0.07 0.10 0.09 0.06 0.04 0.03 0.02 0.02 0.02 0.02 0.02 0.04 0.04 0.02 0.02 0.02 0.03 0.04 0.05 0.04 0.04 0.03 0.03 0.03 0.02 0.01 0.02 0.02 0.02
0.11 0.07 0.05 0.05 0.04 0.04 0.02 0.01 0.01 0.02 0.02 0.02 0.03 0.04 0.03 0.03 0.03 0.04 0.04 0.04 0.03 0.04 0.04 0.02 0.02 0.02 0.02 0.03 0.04 0.04 0.03 0.03 0.03 0.04 0.04 0.04 0.04 0.03 0.02 0.02 0.02 0.02 0.02
0.10 0.09 0.08 0.07 0.07 0.07 0.04 0.03 0.02 0.02 0.02 0.02 0.03 0.03 0.03 0.03 0.02 0.02 0.03 0.04 0.04 0.03 0.03 0.02 0.04 0.04 0.03 0.03 0.05 0.05 0.03 0.02 0.02 0.02 0.03 0.04 0.04 0.02 0.02 0.02 0.03 0.03 0.03
0.13 0.13 0.12 0.10 0.09 0.09 0.06 0.05 0.04 0.03 0.02 0.02 0.02 0.02 0.03 0.03 0.02 0.02 0.02 0.04 0.06 0.05 0.03 0.04 0.06 0.06 0.04 0.04 0.03 0.03 0.03 0.02 0.02 0.01 0.02 0.02 0.03 0.02 0.02 0.02 0.03 0.03 0.03
0.14 0.13 0.13 0.11 0.10 0.10 0.08 0.07 0.06 0.05 0.04 0.03 0.02 0.02 0.02 0.03 0.02 0.03 0.03 0.03 0.04 0.04 0.04 0.04 0.05 0.04 0.03 0.03 0.03 0.02 0.02 0.02 0.02 0.02 0.01 0.01 0.02 0.02 0.02 0.02 0.02 0.02 0.03
0.13 0.14 0.13 0.11 0.11 0.10 0.09 0.08 0.08 0.07 0.05 0.04 0.03 0.02 0.02 0.03 0.03 0.04 0.05 0.03 0.03 0.03 0.04 0.04 0.04 0.03 0.03 0.02 0.02 0.03 0.03 0.03 0.04 0.03 0.02 0.02 0.02 0.03 0.03 0.03 0.02 0.03 0.03
0.11 0.10 0.11 0.10 0.12 0.12 0.11 0.09 0.07 0.06 0.06 0.04 0.03 0.02 0.02 0.02 0.04 0.07 0.05 0.05 0.04 0.04 0.04 0.03 0.03 0.03 0.03 0.02 0.02 0.03 0.03 0.03 0.04 0.04 0.03 0.02 0.02 0.02 0.02 0.02 0.02 0.03 0.03
0.13 0.12 0.10 0.09 0.10 0.12 0.14 0.14 0.10 0.07 0.05 0.04 0.03 0.02 0.02 0.02 0.02 0.04 0.06 0.06 0.05 0.04 0.03 0.03 0.04 0.04 0.05 0.05 0.06 0.05 0.05 0.05 0.05 0.05 0.05 0.04 0.03 0.02 0.02 0.02 0.01 0.02 0.03
0.17 0.17 0.14 0.11 0.10 0.10 0.11 0.12 0.10 0.07 0.07 0.05 0.04 0.03 0.02 0.03 0.03 0.05 0.05 0.05 0.06 0.07 0.04 0.03 0.03 0.04 0.04 0.05 0.07 0.08 0.07 0.08 0.09 0.08 0.08 0.07 0.06 0.05 0.04 0.04 0.03 0.03 0.03
0.12 0.12 0.13 0.12 0.10 0.08 0.08 0.08 0.07 0.08 0.09 0.08 0.07 0.05 0.04 0.05 0.06 0.07 0.07 0.07 0.07 0.09 0.08 0.05 0.04 0.04 0.04 0.04 0.07 0.08 0.06 0.07 0.08 0.10 0.11 0.09 0.08 0.07 0.07 0.05 0.04 0.03 0.03
0.13 0.14 0.13 0.11 0.08 0.08 0.08 0.10 0.09 0.09 0.10 0.11 0.11 0.09 0.08 0.10 0.12 0.13 0.13 0.12 0.10 0.11 0.11 0.08 0.06 0.05 0.04 0.05 0.06 0.06 0.06 0.06 0.06 0.07 0.08 0.08 0.08 0.07 0.06 0.05 0.05 0.04 0.03
0.11 0.13 0.11 0.10 0.09 0.09 0.10 0.10 0.12 0.14 0.15 0.14 0.14 0.14 0.13 0.14 0.14 0.15 0.16 0.17 0.16 0.14 0.12 0.10 0.08 0.07 0.05 0.05 0.07 0.07 0.08 0.09 0.08 0.08 0.08 0.07 0.08 0.09 0.09 0.09 0.07 0.05 0.03
0.10 0.13 0.12 0.11 0.13 0.14 0.14 0.13 0.11 0.11 0.13 0.15 0.15 0.15 0.15 0.14 0.12 0.12 0.13 0.14 0.17 0.18 0.14 0.13 0.10 0.09 0.07 0.06 0.07 0.07 0.08 0.09 0.08 0.08 0.09 0.09 0.10 0.10 0.09 0.08 0.06 0.05 0.05
0.07 0.07 0.10 0.12 0.14 0.17 0.17 0.16 0.14 0.13 0.13 0.15 0.19 0.20 0.17 0.16 0.15 0.14 0.14 0.13 0.15 0.18 0.16 0.13 0.10 0.08 0.07 0.08 0.08 0.07 0.07 0.07 0.07 0.07 0.07 0.07 0.07 0.08 0.10 0.10 0.09 0.09 0.09
0.07 0.08 0.08 0.10 0.11 0.12 0.14 0.14 0.15 0.16 0.17 0.20 0.22 0.22 0.21 0.20 0.19 0.17 0.13 0.12 0.13 0.13 0.13 0.12 0.11 0.09 0.08 0.08 0.08 0.08 0.07 0.07 0.07 0.06 0.07 0.06 0.07 0.07 0.07 0.07 0.07 0.07 0.06
0.12 0.11 0.09 0.08 0.08 0.09 0.12 0.12 0.11 0.12 0.15 0.21 0.24 0.24 0.24 0.23 0.22 0.17 0.14 0.12 0.10 0.11 0.12 0.11 0.10 0.09 0.07 0.06 0.07 0.07 0.07 0.06 0.06 0.06 0.07 0.07 0.06 0.06 0.05 0.07 0.08 0.08 0.07
0.09 0.09 0.10 0.10 0.11 0.10 0.10 0.09 0.09 0.08 0.10 0.13 0.15 0.15 0.14 0.15 0.15 0.14 0.11 0.09 0.07 0.07 0.09 0.10 0.10 0.10 0.09 0.08 0.08 0.07 0.07 0.07 0.07 0.05 0.04 0.04 0.04 0.04 0.04 0.04 0.05 0.05 0.05
0.10 0.10 0.10 0.11 0.09 0.07 0.05 0.05 0.07 0.05 0.04 0.04 0.05 0.05 0.06 0.07 0.09 0.09 0.08 0.06 0.06 0.07 0.09 0.09 0.10 0.10 0.11 0.09 0.08 0.07 0.06 0.06 0.05 0.04 0.03 0.03 0.02 0.02 0.02 0.02 0.02 0.02 0.02
0.10 0.11 0.11 0.09 0.07 0.06 0.06 0.07 0.05 0.04 0.03 0.03 0.03 0.04 0.05 0.05 0.06 0.06 0.04 0.04 0.04 0.05 0.07 0.08 0.09 0.10 0.10 0.10 0.10 0.08 0.08 0.08 0.07 0.06 0.04 0.04 0.03 0.02 0.03 0.03 0.03 0.02 0.02
MSLP
1016.99 1017.12 1017.18 1017.20 1017.22 1017.26 1017.34 1017.47 1017.62 1017.80 1017.99 1018.17 1018.34 1018.50 1018.66 1018.81 1018.97 1019.13 1019.30 1019.48 1019.67 1019.85 1020.03 1020.21 1020.39 1020.56 1020.72 1020.87 1021.01 1021.13 1021.23 1021.33 1021.42 1021.53 1021.64 1021.77 1021.90 1022.04 1022.15 1022.23 1022.28 1022.29 1022.28
1016.81 1016.99 1017.10 1017.17 1017.23 1017.29 1017.38 1017.50 1017.65 1017.82 1018.01 1018.20 1018.38 1018.56 1018.72 1018.87 1019.02 1019.16 1019.30 1019.45 1019.61 1019.78 1019.97 1020.18 1020.39 1020.60 1020.80 1020.97 1021.11 1021.21 1021.29 1021.35 1021.42 1021.50 1021.60 1021.73 1021.88 1022.04 1022.18 1022.28 1022.35 1022.37 1022.36
1016.50 1016.73 1016.91 1017.06 1017.18 1017.30 1017.42 1017.56 1017.72 1017.90 1018.09 1018.29 1018.49 1018.67 1018.84 1018.99 1019.11 1019.21 1019.30 1019.40 1019.52 1019.66 1019.84 1020.05 1020.29 1020.53 1020.76 1020.96 1021.11 1021.22 1021.29 1021.33 1021.36 1021.42 1021.51 1021.63 1021.79 1021.96 1022.12 1022.25 1022.34 1022.38 1022.38
1016.08 1016.37 1016.63 1016.86 1017.07 1017.26 1017.43 1017.61 1017.80 1018.00 1018.21 1018.43 1018.64 1018.84 1019.01 1019.15 1019.24 1019.30 1019.33 1019.36 1019.41 1019.50 1019.65 1019.84 1020.08 1020.34 1020.60 1020.82 1021.00 1021.12 1021.19 1021.22 1021.24 1021.28 1021.35 1021.47 1021.62 1021.79 1021.96 1022.11 1022.22 1022.28 1022.30
1015.61 1015.94 1016.27 1016.59 1016.89 1017.16 1017.40 1017.63 1017.85 1018.08 1018.31 1018.56 1018.79 1019.01 1019.20 1019.33 1019.39 1019.41 1019.38 1019.33 1019.30 1019.32 1019.40 1019.55 1019.77 1020.03 1020.30 1020.54 1020.75 1020.89 1020.97 1021.02 1021.04 1021.07 1021.13 1021.23 1021.37 1021.53 1021.70 1021.86 1021.98 1022.05 1022.10
1015.14 1015.50 1015.88 1016.27 1016.64 1016.98 1017.29 1017.57 1017.83 1018.09 1018.35 1018.62 1018.89 1019.14 1019.34 1019.48 1019.53 1019.51 1019.43 1019.31 1019.20 1019.13 1019.13 1019.22 1019.39 1019.62 1019.88 1020.13 1020.36 1020.52 1020.64 1020.70 1020.74 1020.77 1020.83 1020.92 1021.04 1021.19 1021.35 1021.50 1021.62 1021.71 1021.76
1014.72 1015.07 1015.48 1015.91 1016.34 1016.73 1017.08 1017.40 1017.70 1017.99 1018.28 1018.58 1018.89 1019.17 1019.40 1019.56 1019.62 1019.58 1019.46 1019.29 1019.11 1018.95 1018.87 1018.87 1018.97 1019.14 1019.37 1019.62 1019.85 1020.04 1020.18 1020.27 1020.34 1020.39 1020.46 1020.55 1020.66 1020.79 1020.93 1021.06 1021.17 1021.26 1021.32
1014.37 1014.70 1015.10 1015.55 1015.99 1016.41 1016.79 1017.13 1017.45 1017.76 1018.08 1018.41 1018.75 1019.07 1019.34 1019.54 1019.62 1019.59 1019.46 1019.25 1019.01 1018.78 1018.61 1018.53 1018.54 1018.65 1018.82 1019.04 1019.25 1019.45 1019.62 1019.75 1019.85 1019.93 1020.02 1020.11 1020.22 1020.34 1020.45 1020.56 1020.66 1020.73 1020.80
1014.09 1014.38 1014.75 1015.17 1015.61 1016.03 1016.42 1016.77 1017.10 1017.42 1017.76 1018.11 1018.48 1018.84 1019.15 1019.39 1019.51 1019.51 1019.39 1019.17 1018.90 1018.63 1018.39 1018.22 1018.15 1018.17 1018.28 1018.44 1018.63 1018.82 1019.00 1019.16 1019.30 1019.42 1019.54 1019.65 1019.76 1019.86 1019.96 1020.04 1020.11 1020.18 1020.23
1013.85 1014.08 1014.41 1014.80 1015.21 1015.61 1015.99 1016.34 1016.67 1017.00 1017.34 1017.71 1018.10 1018.48 1018.83 1019.11 1019.28 1019.32 1019.23 1019.04 1018.77 1018.47 1018.19 1017.96 1017.82 1017.76 1017.79 1017.89 1018.03 1018.21 1018.38 1018.56 1018.73 1018.89 1019.04 1019.17 1019.29 1019.39 1019.47 1019.53 1019.58 1019.61 1019.65
1013.59 1013.77 1014.05 1014.40 1014.78 1015.17 1015.53 1015.88 1016.20 1016.53 1016.88 1017.25 1017.64 1018.03 1018.40 1018.71 1018.92 1019.01 1018.97 1018.82 1018.59 1018.31 1018.02 1017.77 1017.57 1017.46 1017.42 1017.45 1017.54 1017.67 1017.83 1018.01 1018.20 1018.38 1018.56 1018.72 1018.85 1018.95 1019.02 1019.06 1019.07 1019.08 1019.09
1013.25 1013.39 1013.63 1013.95 1014.31 1014.68 1015.04 1015.38 1015.71 1016.03 1016.37 1016.73 1017.12 1017.51 1017.88 1018.21 1018.46 1018.60 1018.62 1018.54 1018.37 1018.14 1017.89 1017.65 1017.44 1017.28 1017.19 1017.16 1017.19 1017.28 1017.41 1017.57 1017.76 1017.95 1018.15 1018.32 1018.47 1018.57 1018.62 1018.63 1018.61 1018.58 1018.56
1012.81 1012.92 1013.13 1013.43 1013.77 1014.14 1014.50 1014.85 1015.18 1015.50 1015.83 1016.18 1016.55 1016.92 1017.29 1017.62 1017.90 1018.09 1018.19 1018.19 1018.12 1017.98 1017.80 1017.60 1017.42 1017.26 1017.14 1017.07 1017.04 1017.07 1017.16 1017.29 1017.45 1017.64 1017.84 1018.01 1018.16 1018.25 1018.28 1018.27 1018.21 1018.14 1018.08
1012.25 1012.34 1012.54 1012.82 1013.15 1013.52 1013.89 1014.24 1014.58 1014.91 1015.23 1015.57 1015.91 1016.27 1016.63 1016.96 1017.27 1017.51 1017.69 1017.80 1017.84 1017.81 1017.74 1017.64 1017.51 1017.38 1017.27 1017.17 1017.10 1017.08 1017.11 1017.19 1017.31 1017.47 1017.64 1017.80 1017.93 1018.00 1018.02 1017.97 1017.88 1017.76 1017.66
1011.60 1011.68 1011.86 1012.12 1012.45 1012.81 1013.19 1013.55 1013.90 1014.23 1014.55 1014.88 1015.21 1015.55 1015.90 1016.25 1016.58 1016.89 1017.15 1017.37 1017.54 1017.66 1017.72 1017.73 1017.70 1017.63 1017.54 1017.44 1017.34 1017.28 1017.25 1017.27 1017.34 1017.44 1017.57 1017.69 1017.79 1017.83 1017.81 1017.73 1017.60 1017.45 1017.29
1010.93 1010.98 1011.14 1011.37 1011.68 1012.03 1012.39 1012.75 1013.10 1013.44 1013.76 1014.09 1014.42 1014.76 1015.12 1015.49 1015.86 1016.24 1016.60 1016.93 1017.23 1017.49 1017.70 1017.84 1017.92 1017.94 1017.90 1017.81 1017.71 1017.61 1017.53 1017.49 1017.49 1017.53 1017.60 1017.67 1017.72 1017.72 1017.67 1017.55 1017.39 1017.19 1017.00
1010.33 1010.34 1010.44 1010.63 1010.89 1011.19 1011.52 1011.86 1012.20 1012.54 1012.87 1013.21 1013.55 1013.92 1014.30 1014.71 1015.14 1015.59 1016.04 1016.49 1016.92 1017.32 1017.66 1017.94 1018.13 1018.24 1018.27 1018.22 1018.13 1018.01 1017.89 1017.79 1017.72 1017.70 1017.70 1017.70 1017.69 1017.65 1017.56 1017.41 1017.22 1017.00 1016.78
1009.86 1009.81 1009.85 1009.96 1010.15 1010.38 1010.65 1010.95 1011.26 1011.58 1011.92 1012.28 1012.66 1013.06 1013.49 1013.95 1014.45 1014.97 1015.51 1016.06 1016.60 1017.11 1017.58 1017.97 1018.27 1018.47 1018.57 1018.57 1018.50 1018.38 1018.23 1018.10 1017.98 1017.89 1017.82 1017.76 1017.70 1017.61 1017.48 1017.30 1017.09 1016.86 1016.62
1009.60 1009.47 1009.42 1009.44 1009.53 1009.67 1009.86 1010.09 1010.36 1010.67 1011.01 1011.39 1011.80 1012.26 1012.75 1013.27 1013.83 1014.42 1015.04 1015.66 1016.28 1016.88 1017.43 1017.91 1018.30 1018.58 1018.75 1018.80 1018.77 1018.67 1018.52 1018.36 1018.21 1018.07 1017.95 1017.84 1017.72 1017.59 1017.43 1017.23 1017.00 1016.76 1016.53
1009.56 1009.36 1009.22 1009.15 1009.12 1009.16 1009.25 1009.40 1009.62 1009.89 1010.23 1010.63 1011.09 1011.60 1012.15 1012.74 1013.36 1014.00 1014.66 1015.33 1016.00 1016.64 1017.24 1017.77 1018.22 1018.56 1018.79 1018.90 1018.92 1018.85 1018.73 1018.57 1018.40 1018.24 1018.08 1017.93 1017.77 1017.60 1017.41 1017.20 1016.96 1016.72 1016.49
1009.75 1009.50 1009.28 1009.11 1008.99 1008.93 1008.93 1009.00 1009.15 1009.39 1009.72 1010.14 1010.63 1011.18 1011.78 1012.42 1013.08 1013.75 1014.43 1015.11 1015.78 1016.43 1017.04 1017.59 1018.06 1018.44 1018.72 1018.89 1018.96 1018.94 1018.86 1018.73 1018.57 1018.40 1018.22 1018.05 1017.86 1017.67 1017.46 1017.23 1016.98 1016.74 1016.51
1010.16 1009.87 1009.61 1009.38 1009.18 1009.04 1008.95 1008.95 1009.05 1009.26 1009.58 1010.00 1010.51 1011.09 1011.72 1012.38 1013.06 1013.73 1014.40 1015.05 1015.69 1016.30 1016.88 1017.41 1017.89 1018.29 1018.60 1018.82 1018.95 1019.00 1018.96 1018.88 1018.75 1018.59 1018.42 1018.23 1018.03 1017.82 1017.59 1017.35 1017.09 1016.84 1016.60
1010.75 1010.47 1010.20 1009.94 1009.71 1009.51 1009.37 1009.32 1009.38 1009.55 1009.85 1010.27 1010.78 1011.37 1012.00 1012.66 1013.32 1013.96 1014.59 1015.18 1015.76 1016.31 1016.84 1017.33 1017.79 1018.19 1018.53 1018.79 1018.97 1019.07 1019.10 1019.07 1018.98 1018.85 1018.69 1018.51 1018.30 1018.08 1017.83 1017.57 1017.30 1017.02 1016.76
1011.50 1011.26 1011.02 1010.78 1010.54 1010.33 1010.18 1010.10 1010.13 1010.28 1010.56 1010.95 1011.45 1012.02 1012.63 1013.26 1013.87 1014.46 1015.02 1015.54 1016.03 1016.51 1016.97 1017.41 1017.83 1018.22 1018.57 1018.86 1019.08 1019.24 1019.32 1019.34 1019.29 1019.19 1019.06 1018.88 1018.68 1018.44 1018.19 1017.90 1017.61 1017.30 1016.99
1012.37 1012.20 1012.02 1011.83 1011.63 1011.44 1011.29 1011.21 1011.23 1011.36 1011.62 1011.98 1012.45 1012.98 1013.55 1014.12 1014.67 1015.19 1015.67 1016.10 1016.52 1016.91 1017.30 1017.68 1018.06 1018.43 1018.77 1019.08 1019.33 1019.52 1019.64 1019.69 1019.68 1019.61 1019.49 1019.33 1019.12 1018.89 1018.62 1018.31 1017.98 1017.63 1017.27
1013.32 1013.24 1013.14 1013.01 1012.86 1012.72 1012.60 1012.54 1012.56 1012.68 1012.91 1013.24 1013.66 1014.14 1014.65 1015.16 1015.64 1016.08 1016.47 1016.83 1017.17 1017.49 1017.81 1018.14 1018.48 1018.82 1019.14 1019.44 1019.69 1019.89 1020.03 1020.10 1020.10 1020.05 1019.94 1019.79 1019.59 1019.35 1019.07 1018.75 1018.39 1018.00 1017.58
Thickness
5759 5757 5756 5755 5753 5752 5751 5749 5748 5747 5746 5745 5744 5742 5740 5738 5736 5734 5732 5730 5729 5727 5726 5724 5722 5721 5719 5718 5717 5716 5715 5714 5713 5712 5711 5710 5709 5707 5706 5705 5704 5703 5702
5760 5758 5757 5755 5754 5752 5751 5750 5748 5747 5746 5745 5744 5742 5741 5738 5736 5734 5733 5731 5729 5728 5726 5725 5723 5721 5720 5718 5717 5716 5715 5714 5713 5712 5711 5710 5709 5707 5706 5705 5704 5703 5702
5761 5759 5757 5756 5755 5753 5752 5750 5749 5747 5746 5745 5744 5743 5741 5739 5737 5735 5733 5732 5730 5729 5727 5726 5724 5723 5721 5719 5718 5717 5716 5714 5713 5712 5711 5710 5709 5708 5706 5705 5704 5703 5701
5762 5760 5758 5756 5756 5754 5752 5751 5749 5746 5745 5744 5743 5743 5741 5739 5738 5736 5734 5733 5731 5730 5729 5727 5726 5724 5722 5721 5720 5718 5717 5715 5714 5713 5712 5711 5710 5708 5707 5706 5704 5703 5702
5761 5760 5758 5757 5756 5754 5753 5752 5749 5747 5744 5743 5743 5743 5742 5740 5739 5737 5736 5734 5733 5732 5731 5729 5727 5726 5724 5723 5721 5720 5718 5717 5715 5714 5713 5712 5710 5709 5708 5707 5705 5704 5703
5761 5759 5758 5757 5756 5754 5752 5751 5749 5748 5745 5744 5743 5742 5742 5742 5740 5740 5738 5737 5735 5733 5732 5731 5729 5727 5726 5725 5723 5722 5720 5719 5717 5715 5714 5712 5711 5710 5709 5708 5706 5705 5703
5759 5758 5758 5756 5755 5753 5752 5751 5748 5746 5744 5743 5739 5736 5738 5741 5740 5740 5740 5739 5737 5736 5734 5733 5731 5729 5728 5727 5725 5724 5722 5720 5719 5717 5716 5714 5713 5712 5710 5709 5707 5706 5705
5758 5757 5756 5755 5754 5752 5750 5749 5748 5744 5743 5743 5737 5731 5728 5730 5737 5742 5741 5740 5740 5739 5737 5735 5734 5732 5731 5730 5728 5726 5724 5723 5721 5720 5718 5717 5715 5713 5712 5710 5709 5707 5706
5759 5757 5756 5755 5753 5752 5750 5749 5748 5744 5740 5741 5741 5735 5726 5723 5729 5737 5741 5742 5741 5740 5739 5738 5737 5735 5733 5731 5730 5729 5727 5726 5724 5723 5721 5719 5718 5716 5714 5712 5710 5709 5707
5758 5757 5756 5755 5752 5751 5750 5749 5748 5746 5742 5738 5739 5740 5738 5735 5728 5728 5735 5740 5742 5741 5741 5740 5739 5737 5735 5734 5732 5731 5730 5728 5726 5725 5723 5721 5719 5718 5716 5714 5712 5710 5708
5756 5755 5755 5754 5752 5750 5749 5748 5747 5746 5744 5741 5739 5738 5737 5736 5734 5729 5727 5733 5737 5741 5742 5742 5741 5739 5738 5736 5735 5734 5732 5730 5728 5726 5724 5723 5721 5719 5717 5715 5713 5711 5709
5754 5754 5753 5752 5751 5749 5748 5747 5746 5745 5744 5743 5741 5739 5737 5734 5732 5730 5727 5729 5731 5737 5741 5742 5741 5740 5739 5738 5736 5736 5734 5732 5730 5728 5726 5724 5721 5720 5718 5716 5714 5711 5710
5751 5752 5752 5751 5749 5749 5748 5747 5745 5744 5744 5742 5740 5739 5739 5738 5737 5734 5730 5728 5729 5733 5737 5740 5741 5740 5739 5738 5737 5736 5734 5732 5730 5728 5725 5723 5721 5719 5717 5715 5713 5711 5709
5752 5752 5751 5750 5749 5748 5747 5746 5745 5744 5743 5741 5740 5740 5739 5739 5738 5736 5733 5729 5724 5725 5729 5733 5738 5739 5738 5737 5736 5734 5733 5731 5729 5727 5724 5722 5720 5718 5716 5714 5712 5709 5707
5752 5751 5750 5749 5748 5747 5746 5744 5742 5742 5741 5740 5739 5739 5738 5738 5738 5737 5736 5733 5726 5719 5721 5727 5731 5735 5735 5734 5733 5731 5730 5729 5727 5725 5723 5720 5718 5716 5714 5712 5709 5707 5704
5751 5750 5748 5747 5746 5745 5744 5742 5741 5740 5738 5738 5738 5737 5736 5736 5736 5735 5734 5732 5730 5724 5719 5724 5727 5730 5731 5731 5730 5728 5727 5726 5725 5722 5720 5718 5715 5713 5710 5708 5705 5703 5700
5749 5748 5746 5744 5743 5742 5741 5740 5739 5738 5736 5735 5735 5734 5733 5734 5732 5732 5730 5729 5726 5723 5718 5720 5723 5725 5725 5725 5725 5724 5722 5720 5719 5717 5715 5713 5711 5708 5706 5703 5701 5698 5695
5747 5746 5744 5742 5741 5739 5739 5737 5736 5735 5733 5731 5731 5730 5729 5730 5728 5727 5726 5724 5722 5721 5717 5713 5714 5716 5717 5718 5718 5717 5715 5714 5712 5711 5709 5706 5704 5702 5700 5697 5695 5692 5690
5743 5742 5740 5738 5737 5736 5735 5734 5732 5731 5729 5727 5726 5725 5724 5724 5722 5721 5721 5719 5718 5717 5714 5710 5708 5709 5710 5711 5709 5708 5708 5707 5705 5704 5702 5700 5698 5696 5693 5691 5688 5686 5683
5737 5736 5735 5734 5733 5732 5730 5729 5727 5725 5724 5722 5721 5720 5719 5718 5717 5716 5715 5713 5712 5710 5707 5704 5702 5702 5701 5702 5700 5698 5697 5697 5696 5695 5694 5692 5690 5688 5686 5683 5681 5678 5676
5732 5731 5729 5728 5727 5726 5725 5724 5722 5720 5717 5716 5715 5714 5713 5713 5712 5711 5710 5707 5706 5703 5700 5697 5695 5693 5692 5690 5689 5689 5687 5686 5685 5684 5683 5682 5681 5679 5677 5675 5673 5671 5668
5726 5725 5723 5722 5721 5720 5719 5718 5716 5713 5711 5709 5707 5706 5706 5705 5705 5704 5703 5701 5699 5696 5692 5690 5686 5684 5683 5682 5681 5680 5678 5675 5672 5674 5672 5671 5671 5668 5667 5665 5663 5662 5659
5719 5718 5716 5715 5713 5711 5711 5710 5708 5706 5703 5701 5700 5698 5698 5698 5697 5695 5694 5692 5690 5689 5687 5684 5680 5678 5676 5675 5673 5670 5668 5666 5663 5663 5661 5658 5657 5656 5655 5654 5652 5650 5648
5713 5711 5708 5707 5705 5703 5702 5701 5700 5698 5695 5693 5691 5690 5689 5688 5687 5686 5684 5682 5680 5679 5678 5675 5672 5670 5669 5668 5665 5663 5660 5657 5654 5652 5650 5645 5644 5642 5642 5641 5639 5637 5635
5707 5704 5701 5699 5697 5694 5694 5693 5693 5690 5687 5684 5683 5681 5680 5679 5677 5676 5675 5672 5670 5668 5667 5665 5663 5661 5660 5658 5656 5654 5649 5645 5641 5639 5637 5633 5630 5628 5628 5627 5625 5624 5622
5699 5696 5693 5690 5688 5686 5685 5685 5685 5682 5678 5675 5673 5672 5670 5669 5668 5666 5664 5662 5658 5656 5655 5654 5652 5650 5648 5646 5645 5642 5638 5633 5628 5624 5623 5619 5616 5613 5611 5611 5610 5609 5607